This is the latest recevied weather packets stored in our database for station/object KQ4UWH. If no packets are shown the sender has not sent any weather packets the latest 10 day(s).
| Time | Temp. | Humidity | Pressure | Rain* | Wind** | Luminosity | Snow |
|---|---|---|---|---|---|---|---|
| 1777741453 | 20° C | 47% | 1239.7 hPa | 1.78 mm | - | 11 W/m² | - |
| 1777741148 | 19.44° C | 51% | 1239.7 hPa | 0 mm | - | 16 W/m² | - |
| 1777740846 | 18.89° C | 52% | 1239.7 hPa | 0 mm | - | 8 W/m² | - |
| 1777740542 | 18.89° C | 50% | 1239.7 hPa | 0 mm | - | 684 W/m² | - |
| 1777740239 | 18.89° C | 50% | 1239.7 hPa | 0 mm | - | 740 W/m² | - |
| 1777739935 | 18.33° C | 51% | 1239.7 hPa | 0 mm | - | 736 W/m² | - |
| 1777739632 | 18.33° C | 50% | 1239.7 hPa | 0 mm | - | 728 W/m² | - |
| 1777739329 | 18.89° C | 51% | 1239.7 hPa | 0 mm | - | 726 W/m² | - |
| 1777739026 | 18.33° C | 52% | 1239.7 hPa | 0 mm | - | 718 W/m² | - |
| 1777738723 | 17.78° C | 53% | 1239.7 hPa | 0 mm | - | 713 W/m² | - |
| 1777738419 | 17.78° C | 57% | 1239.7 hPa | 0 mm | - | 705 W/m² | - |
| 1777738117 | 17.22° C | 59% | 1239.7 hPa | 0 mm | - | 705 W/m² | - |
| 1777737816 | 17.22° C | 58% | 1239.7 hPa | 0 mm | - | 539 W/m² | - |
| 1777737514 | 17.22° C | 59% | 1239.7 hPa | 0 mm | - | 603 W/m² | - |
| 1777737212 | 16.67° C | 57% | 1239.7 hPa | 0 mm | - | 709 W/m² | - |
| 1777736907 | 16.11° C | 61% | 1239.7 hPa | 0 mm | - | 682 W/m² | - |
| 1777736299 | 15.56° C | 60% | 1239.7 hPa | 0 mm | - | 421 W/m² | - |
| 1777735995 | 15.56° C | 65% | 1239.7 hPa | 0 mm | - | 407 W/m² | - |
| 1777735693 | 15° C | 64% | 1239.7 hPa | 0 mm | - | 319 W/m² | - |
| 1777735390 | 15° C | 64% | 1239.7 hPa | 0 mm | - | 275 W/m² | - |
| 1777735088 | 15° C | 64% | 1239.7 hPa | 0 mm | - | 241 W/m² | - |
| 1777734784 | 15° C | 65% | 1239.7 hPa | 0 mm | - | 224 W/m² | - |
| 1777734483 | 15° C | 66% | 1239.7 hPa | 0 mm | - | 230 W/m² | - |
| 1777734179 | 15° C | 65% | 1239.7 hPa | 0 mm | - | 241 W/m² | - |
| 1777733875 | 14.44° C | 66% | 1239.7 hPa | 0 mm | - | 297 W/m² | - |
* Rain latest hour (hover to see other rain measurements)
** Current wind speed in m/s (hover to see current wind gust speed)